(232243) = 2002 OG27

Discovered at Palomar on 2002-07-22 by NEAT.

Orbit

Orbit type: Main Belt

Note: WebGL enabled browser required.

epoch2023-09-13.0
epoch JD2460200.5
perihelion date2019-01-06.21111
perihelion JD2458489.71111
argument of perihelion (°)239.60713
ascending node (°)143.37094
inclination (°)3.36757
eccentricity0.1035250
perihelion distance (AU)2.6726473
Tisserand w.r.t. Jupiter3.2
ΔV w.r.t. Earth (km/sec)10.3
semimajor axis (AU)2.9812849
mean anomaly (°)327.56315
mean daily motion (°/day)0.19146910
aphelion distance (AU)3.290
period (years)5.15
P-vector [x]0.91976570
P-vector [y]0.37722371
P-vector [z]0.10832049
Q-vector [x]-0.39089994
Q-vector [y]0.85586208
Q-vector [z]0.33866996
absolute magnitude16.35
phase slope0.15
uncertainty0
referenceMPO 778636
observations used242
oppositions15
arc length (days)10455
first opposition used1995
last opposition used2023
residual rms (arc-secs)0.79
perturbers coarse indicatorM-v
perturbers precise indicator003Ek
first observation date used1995-03-23.0
last observation date used2023-11-06.0
computer nameMPCLINUX
JD of orbit computation2456966.919665
perihelion JD uncertainty (days)1.2564E-04
argument of perihelion uncertainty (°)8.9056E-05
ascending node uncertainty (°)8.4594E-05
inclination uncertainty (°)4.8376E-06
eccentricity uncertainty 5.2124E-08
perihelion distance uncertainty (AU)1.5296E-07
Minimum Orbit Intersection Distances (in AU)
for orbit epoch: 2460200.5, reference: E2023-V87
Mercury2.33033
Venus1.94772
Earth1.67683
Mars1.23124
Jupiter2.1573
Saturn6.11739
Uranus15.2082
Neptune27.1624

Observations

247 total observations over interval: 1995 03 23.28695 – 2023 11 06.303988
These data are available for download (format description).

Date (UT) J2000 RA J2000 Dec Magn Location Ref
1995 03 23.28695 10 59 23.21 +08 38 10.1   691 – Steward Observatory, Kitt Peak-Spacewatch MPS 155815
1995 03 23.30933 10 59 22.40 +08 38 16.0 20.8 V 691 – Steward Observatory, Kitt Peak-Spacewatch MPS 155815
1995 03 23.33098 10 59 21.44 +08 38 22.5   691 – Steward Observatory, Kitt Peak-Spacewatch MPS 155815
1998 12 15.98106 04 17 57.82 +16 26 24.5 21.0 V 910 – Caussols-ODAS MPS 155815
1998 12 16.00410 04 17 56.73 +16 26 23.6 20.9 V 910 – Caussols-ODAS MPS 155815
1998 12 16.03276 04 17 55.36 +16 26 22.1 20.9 V 910 – Caussols-ODAS MPS 155815
2002 07 04.40051 20 42 38.92 -16 06 23.7 20.5 R 644 – Palomar Mountain/NEAT MPS 155815
2002 07 04.42144 20 42 38.13 -16 06 28.1 19.8 R 644 – Palomar Mountain/NEAT MPS 155815
2002 07 22.30853 20 30 02.47 -17 07 22.2 19.8 R 644 – Palomar Mountain/NEAT MPS 155815
2002 07 22.32962 20 30 01.44 -17 07 27.4 20.2 R 644 – Palomar Mountain/NEAT MPS 155815
2002 07 22.36449 20 29 59.74 -17 07 35.7 19.7 R 644 – Palomar Mountain/NEAT MPS 155815
2002 08 07.30117 20 17 05.29 -18 09 31.2 20.2 R 644 – Palomar Mountain/NEAT MPS 155815
2002 08 07.32228 20 17 04.27 -18 09 35.6 20.1 R 644 – Palomar Mountain/NEAT MPS 155815
2002 08 07.34819 20 17 03.03 -18 09 41.7 20.7 R 644 – Palomar Mountain/NEAT MPS 155815
2002 08 15.25903 20 11 13.41 -18 38 24.5 21.1 V 291 – LPL/Spacewatch II MPS 157726
2002 08 15.28083 20 11 12.51 -18 38 28.4 21.2 V 291 – LPL/Spacewatch II MPS 157726
2002 08 15.30304 20 11 11.56 -18 38 33.1 21.1 V 291 – LPL/Spacewatch II MPS 157726
2002 08 28.17440 20 03 53.90 -19 17 48.2 19.7 R 644 – Palomar Mountain/NEAT MPS 155815
2002 08 28.19554 20 03 53.27 -19 17 50.7 20.4 R 644 – Palomar Mountain/NEAT MPS 155815
2002 08 28.21705 20 03 52.70 -19 17 53.7 20.3 R 644 – Palomar Mountain/NEAT MPS 155815
2005 03 04.23130 09 26 28.21 +15 19 28.8 20.2 R G96 – Mt. Lemmon Survey MPS 155815
2005 03 04.23776 09 26 27.94 +15 19 30.0 20.2 R G96 – Mt. Lemmon Survey MPS 155815
2005 03 04.24423 09 26 27.68 +15 19 31.4 20.6 R G96 – Mt. Lemmon Survey MPS 155815
2005 03 04.25066 09 26 27.39 +15 19 33.1 19.9 R G96 – Mt. Lemmon Survey MPS 155815
2005 03 12.195407 09 21 53.614 +15 47 33.70 21.47 V 645 – Apache Point-Sloan Digital Sky Survey MPS 390359
2005 03 12.198879 09 21 53.502 +15 47 34.28 22.33   645 – Apache Point-Sloan Digital Sky Survey MPS 390359
2006 04 24.21820 14 11 00.58 -08 21 59.3 21.2 V 691 – Steward Observatory, Kitt Peak-Spacewatch MPS 169873
2006 04 24.23545 14 10 59.73 -08 21 54.7 21.4 V 691 – Steward Observatory, Kitt Peak-Spacewatch MPS 169873
2006 04 24.25269 14 10 58.93 -08 21 49.8 21.2 V 691 – Steward Observatory, Kitt Peak-Spacewatch MPS 169873
2006 05 25.202686 13 50 20.974 -06 36 58.99 21.74 V 645 – Apache Point-Sloan Digital Sky Survey MPS 390359
2006 05 25.206158 13 50 20.871 -06 36 58.60 22.71   645 – Apache Point-Sloan Digital Sky Survey MPS 390359
2008 10 06.37364 02 29 07.87 +09 45 00.8 20.3 V 691 – Steward Observatory, Kitt Peak-Spacewatch MPS 259154
2008 10 06.39125 02 29 07.21 +09 44 56.2 20.3 V 691 – Steward Observatory, Kitt Peak-Spacewatch MPS 259154
2008 10 06.40889 02 29 06.55 +09 44 51.5 20.5 V 691 – Steward Observatory, Kitt Peak-Spacewatch MPS 259154
2008 10 10.38041 02 26 37.38 +09 27 08.7 20.4 V 691 – Steward Observatory, Kitt Peak-Spacewatch MPS 259154
2008 10 10.39803 02 26 36.66 +09 27 03.5 20.2 V 691 – Steward Observatory, Kitt Peak-Spacewatch MPS 259154
2008 10 10.41565 02 26 35.93 +09 26 59.0 20.3 V 691 – Steward Observatory, Kitt Peak-Spacewatch MPS 259154
2008 10 25.27281 02 15 29.84 +08 16 50.7 19.7 V G96 – Mt. Lemmon Survey MPS 261366
2008 10 25.27725 02 15 29.62 +08 16 49.2 19.9 V G96 – Mt. Lemmon Survey MPS 261366
2008 10 25.28171 02 15 29.44 +08 16 48.4 19.7 V G96 – Mt. Lemmon Survey MPS 261366
2008 10 25.28611 02 15 29.19 +08 16 46.8 19.7 V G96 – Mt. Lemmon Survey MPS 261366
2009 01 03.06602 01 55 15.81 +07 30 35.1 20.9 V G96 – Mt. Lemmon Survey MPS 271732
2009 01 03.07455 01 55 16.03 +07 30 36.5 21.1 V G96 – Mt. Lemmon Survey MPS 271732
2009 01 03.08330 01 55 16.21 +07 30 39.4 20.5 V G96 – Mt. Lemmon Survey MPS 271732
2009 01 03.09183 01 55 16.50 +07 30 40.9 20.9 V G96 – Mt. Lemmon Survey MPS 271732
2010 02 09.27657 08 42 47.05 +17 12 28.9 20.7 V G96 – Mt. Lemmon Survey MPS 313018
2010 02 09.28627 08 42 46.58 +17 12 31.7 20.3 V G96 – Mt. Lemmon Survey MPS 313018
2010 02 09.29604 08 42 46.08 +17 12 34.0 20.1 V G96 – Mt. Lemmon Survey MPS 313018
2010 02 14.17909 08 38 57.62 +17 32 07.9 20.4 V G96 – Mt. Lemmon Survey MPS 313018
2010 02 14.18559 08 38 57.37 +17 32 09.7 20.2 V G96 – Mt. Lemmon Survey MPS 313018
2010 02 14.19206 08 38 57.08 +17 32 11.5 20.5 V G96 – Mt. Lemmon Survey MPS 313018
2010 02 14.19850 08 38 56.79 +17 32 12.7 20.2 V G96 – Mt. Lemmon Survey MPS 313018
2010 02 16.19897 08 37 28.23 +17 39 50.9 20.7 V G96 – Mt. Lemmon Survey MPS 313018
2010 02 16.20485 08 37 27.94 +17 39 51.7 21.0 V G96 – Mt. Lemmon Survey MPS 313018
2010 02 16.21072 08 37 27.69 +17 39 53.4 20.6 V G96 – Mt. Lemmon Survey MPS 313018
2010 02 16.21663 08 37 27.44 +17 39 55.0 20.8 V G96 – Mt. Lemmon Survey MPS 313018
2010 04 10.12357 08 28 25.57 +19 02 01.2 22.4 V G96 – Mt. Lemmon Survey MPS 323357
2010 04 10.12951 08 28 25.78 +19 02 00.7 21.6 V G96 – Mt. Lemmon Survey MPS 323357
2010 04 10.13545 08 28 25.89 +19 02 00.4 21.5 V G96 – Mt. Lemmon Survey MPS 323357
2010 04 10.14141 08 28 26.00 +19 02 00.7 21.9 V G96 – Mt. Lemmon Survey MPS 323357
2013 09 03.33006 01 26 37.07 +05 24 31.3 20.6 V 691 – Steward Observatory, Kitt Peak-Spacewatch MPS 475931
2013 09 03.34770 01 26 36.82 +05 24 28.1 20.5 V 691 – Steward Observatory, Kitt Peak-Spacewatch MPS 475931
2013 09 03.36533 01 26 36.54 +05 24 24.6 20.1 V 691 – Steward Observatory, Kitt Peak-Spacewatch MPS 475931
2013 10 02.39046 01 11 38.886 +03 06 34.25 20.2 w F51 – Pan-STARRS 1, Haleakala MPS 479770
2013 10 02.40535 01 11 38.210 +03 06 29.19 20.1 w F51 – Pan-STARRS 1, Haleakala MPS 479770
2013 10 02.42022 01 11 37.530 +03 06 24.14 20.0 w F51 – Pan-STARRS 1, Haleakala MPS 479770
2013 10 02.43514 01 11 36.840 +03 06 19.10 20.1 w F51 – Pan-STARRS 1, Haleakala MPS 479770
2013 10 04.50718 01 10 04.722 +02 54 36.09 20.5 g F51 – Pan-STARRS 1, Haleakala MPS 481954
2013 10 04.51945 01 10 04.156 +02 54 31.91 20.5 g F51 – Pan-STARRS 1, Haleakala MPS 481954
2013 10 10.30207 01 05 41.38 +02 22 13.3 19.3 R G32 – Elena Remote Observatory, San Pedro de Atacama MPS 481954
2013 10 10.30625 01 05 41.15 +02 22 11.9 19.2 R G32 – Elena Remote Observatory, San Pedro de Atacama MPS 481954
2013 10 10.31043 01 05 40.99 +02 22 10.0 19.3 R G32 – Elena Remote Observatory, San Pedro de Atacama MPS 481954
2013 10 12.29274 01 04 10.64 +02 11 16.8 19.4 V G96 – Mt. Lemmon Survey MPS 481954
2013 10 12.29999 01 04 10.28 +02 11 14.4 19.8 V G96 – Mt. Lemmon Survey MPS 481954
2013 10 12.30704 01 04 09.95 +02 11 12.3 19.5 V G96 – Mt. Lemmon Survey MPS 481954
2013 10 12.31405 01 04 09.61 +02 11 09.8 19.7 V G96 – Mt. Lemmon Survey MPS 481954
2013 10 12.36005 01 04 07.43 +02 10 55.0 19.6 V G96 – Mt. Lemmon Survey MPS 481954
2013 10 12.36752 01 04 07.08 +02 10 52.7 19.5 V G96 – Mt. Lemmon Survey MPS 481954
2013 10 12.37502 01 04 06.73 +02 10 50.1 19.6 V G96 – Mt. Lemmon Survey MPS 481954
2013 10 12.38256 01 04 06.37 +02 10 47.6 19.7 V G96 – Mt. Lemmon Survey MPS 481954
2013 10 22.37830 00 56 46.640 +01 20 46.13 20.3 r F51 – Pan-STARRS 1, Haleakala MPS 483372
2013 10 22.38997 00 56 46.137 +01 20 42.68 20.2 r F51 – Pan-STARRS 1, Haleakala MPS 483372
2013 10 22.40297 00 56 45.559 +01 20 39.29 19.9 i F51 – Pan-STARRS 1, Haleakala MPS 483372
2013 10 22.41599 00 56 44.992 +01 20 35.91 20.4 i F51 – Pan-STARRS 1, Haleakala MPS 483372
2014 01 01.06877 00 58 27.98 +02 24 34.1 21.2 V G96 – Mt. Lemmon Survey MPS 494977
2014 01 01.07726 00 58 28.29 +02 24 36.0 21.2 V G96 – Mt. Lemmon Survey MPS 494977
2014 01 01.08576 00 58 28.70 +02 24 39.9 22.2 V G96 – Mt. Lemmon Survey MPS 494977
2014 01 01.09427 00 58 29.05 +02 24 42.7 21.6 V G96 – Mt. Lemmon Survey MPS 494977
2014 10 28.58567 08 13 23.869 +17 24 53.77 21.5 w F51 – Pan-STARRS 1, Haleakala MPS 543854
2014 10 28.59758 08 13 24.326 +17 24 51.99 21.2 w F51 – Pan-STARRS 1, Haleakala MPS 543854
